WA5GP Weather Reports


time (UTC)temp
C
wind
direction
speed
KPH
gust
KPH
rain 1hr
cm
rain 24hr
cm
rain mn
cm
humidity
%
barometer
mb
20260506114541 10 44 3.2 20.9 0.00 0.00 0.00 87 1006.9
20260506113039 10 348 14.5 25.7 0.00 0.00 0.00 86 1006.9
20260506111541 10 335 12.9 25.7 0.00 0.00 0.00 85 1007.2
20260506110016 10 48 11.3 30.6 0.00 0.00 0.00 85 1006.6
20260506104511 10 19 9.7 22.5 0.00 0.00 0.00 84 1006.2
20260506103021 10 355 8.0 17.7 0.00 0.00 0.00 84 1006.0
20260506101524 10 39 8.0 19.3 0.00 0.00 0.00 83 1006.0
20260506100004 10 46 4.8 19.3 0.00 0.00 0.00 82 1005.9
20260506094501 10 19 4.8 24.1 0.00 0.00 0.00 82 1005.7
20260506093102 10 40 11.3 22.5 0.00 0.00 0.00 82 1005.4
20260506091559 10 42 8.0 19.3 0.00 0.00 0.00 83 1004.9
20260506090041 10 37 3.2 12.9 0.00 0.00 0.00 82 1004.7
20260506084550 11 34 3.2 11.3 0.00 0.00 0.00 84 1004.6
20260506083049 10 25 8.0 14.5 0.00 0.00 0.00 86 1004.7
20260506081551 10 12 3.2 11.3 0.00 0.00 0.00 85 1004.5
20260506073025 11 52 3.2 11.3 0.00 0.00 0.00 83 1004.3
20260506071531 11 18 4.8 11.3 0.00 0.00 0.00 84 1004.6
20260506061529 11 355 4.8 8.0 0.00 0.00 0.00 86 1004.0
20260506044550 12 60 1.6 6.4 0.00 0.00 0.00 81 1003.5
20260506043041 12 47 1.6 8.0 0.00 0.00 0.00 81 1003.6
20260506041546 12 49 4.8 16.1 0.00 0.00 0.00 80 1003.5
20260506040047 12 54 1.6 8.0 0.00 0.00 0.00 80 1003.4
20260506034521 13 353 3.2 8.0 0.00 0.00 0.00 81 1003.5
20260506033015 13 42 1.6 6.4 0.00 0.00 0.00 82 1003.4
20260506031529 13 352 1.6 19.3 0.00 0.00 0.00 81 1003.1
20260506030055 13 347 8.0 20.9 0.00 0.00 0.00 81 1002.7
20260506024601 13 19 12.9 25.7 0.00 0.00 0.00 80 1002.6
20260506023056 14 54 9.7 25.7 0.00 0.00 0.00 80 1002.2
20260506021555 15 346 6.4 17.7 0.00 0.00 0.00 79 1001.6
20260506020032 15 349 14.5 24.1 0.00 0.00 0.00 77 1001.3
20260506014529 16 19 12.9 27.4 0.00 0.00 0.00 76 1000.8
20260506013016 16 351 11.3 24.1 0.00 0.00 0.00 75 1000.2
20260506011516 17 60 12.9 24.1 0.00 0.00 0.00 72 1000.0
20260506010058 19 358 11.3 30.6 0.00 0.00 0.00 69 999.7
20260506004548 20 7 12.9 20.9 0.00 0.00 0.00 65 999.2
20260506003043 21 18 8.0 25.7 0.00 0.00 0.00 64 998.8
20260506001545 21 13 6.4 20.9 0.00 0.00 0.00 63 998.8
20260506000033 21 10 11.3 22.5 0.00 0.00 0.00 61 998.6
20260505234539 21 349 11.3 27.4 0.00 0.00 0.00 62 999.0
20260505233043 21 349 14.5 24.1 0.00 0.00 0.00 61 998.9
20260505231553 22 8 11.3 29.0 0.00 0.00 0.00 61 998.8
20260505230033 22 356 14.5 29.0 0.00 0.00 0.00 61 998.7
20260505224532 22 23 14.5 25.7 0.00 0.00 0.00 61 998.4
20260505223039 22 8 14.5 29.0 0.00 0.00 0.00 62 998.2
20260505221537 23 15 11.3 24.1 0.00 0.00 0.00 59 998.1
20260505220019 23 23 12.9 29.0 0.00 0.00 0.00 59 998.2
20260505214527 24 34 14.5 24.1 0.00 0.00 0.00 60 998.4
20260505213026 25 343 12.9 22.5 0.00 0.00 0.00 60 998.1
20260505211527 25 13 14.5 24.1 0.00 0.00 0.00 60 997.9
20260505210014 25 351 11.3 22.5 0.00 0.00 0.00 58 997.9
20260505204511 26 10 14.5 25.7 0.00 0.00 0.00 58 998.0
20260505203015 26 32 12.9 20.9 0.00 0.00 0.00 57 998.2
20260505201517 26 345 16.1 27.4 0.00 0.00 0.00 61 998.1
20260505200003 26 7 12.9 27.4 0.00 0.00 0.00 60 998.2
20260505194507 26 341 14.5 25.7 0.00 0.00 0.00 59 998.1
20260505193010 27 359 14.5 24.1 0.00 0.00 0.00 51 997.9
20260505191511 27 3 11.3 27.4 0.00 0.00 0.00 51 998.2
20260505184600 27 360 16.1 29.0 0.00 0.00 0.00 44 998.0
20260505183102 28 338 16.1 32.2 0.00 0.00 0.00 40 998.0
20260505181502 29 300 8.0 19.3 0.00 0.00 0.00 48 997.8
20260505180042 28 303 8.0 16.1 0.00 0.00 0.00 51 997.7
20260505174543 28 282 4.8 17.7 0.00 0.00 0.00 55 997.5
20260505173139 28 237 8.0 20.9 0.00 0.00 0.00 61 997.5
20260505171539 27 237 6.4 19.3 0.00 0.00 0.00 63 997.4
20260505170019 27 252 4.8 19.3 0.00 0.00 0.00 68 997.5
20260505164516 27 257 8.0 14.5 0.00 0.00 0.00 66 997.4
20260505163012 26 222 4.8 14.5 0.00 0.00 0.00 70 997.3
20260505161507 26 245 6.4 17.7 0.00 0.00 0.00 70 997.2
20260505153052 25 259 6.4 25.7 0.00 0.00 0.00 71 996.9
20260505151551 25 213 6.4 22.5 0.00 0.00 0.00 72 996.8
20260505124516 21 223 8.0 14.5 0.00 0.00 0.00 82 996.1
20260505123021 21 233 6.4 16.1 0.00 0.00 0.00 82 995.9
20260505121523 21 227 8.0 19.3 0.00 0.00 0.00 82 995.9
20260505120007 21 266 9.7 20.9 0.00 0.00 0.00 82 995.8